Вернуться в каталог

SL-24 DEB

АктивенSSO
NORAD 37796·DEBRIS·🇷🇺 Russia

Запущен Aug 17, 2011 с Dombarovsky

Loading…

Ближайшие Пролёты (ближайшие 24 часа)

TLE

СвежийSource: Space-Track

Эпоха: Sep 14, 2026, 14:21 UTC

1 37796U 11044J   26257.59821201  .00000507  00000-0  10287-3 0  9995
2 37796  97.9665 220.2741 0011616 252.2362 167.7456 14.65167457803576

Отслеживайте SL-24 DEB в реальном времени с AllMySat

Download on the App Store